Location: C�mpuri de-Sus
(45.9500°N, 22.5500°E)
Time: 05:47:47
(UTC+00:00)

Cosmos 2278 Rocket - Pass Details

Date: 30 May 2022
Orbit: 840 x 846 km, 71.0° (Epoch: 03 July)

Event Time Altitude Azimuth Distance (km) Brightness Sun altitude
Rises 22:41:09 0° 329° (NNW) 3,417 6.2 -22.1°
Reaches altitude 10° 22:43:40 10° 325° (NW) 2,477 5.3 -22.1°
Maximum altitude 22:49:08 51° 251° (WSW) 1,059 2.5 -22.0°
Enters shadow 22:50:17 44° 214° (SW) 1,158 2.5 -22.0°
